Regional Weather Roundup
Issued by NWS

Home | Current Version | Previous Version | Graphics & Text | Print | Product List | Glossary On
Versions: 1 2 3 4 5 6 7 8 9 10 11 12 13 14 15 16 17 18 19 20 21 22 23 24 25 26 27 28 29 30 31 32 33 34 35 36 37 38 39 40 41 42 43 44 45 46 47 48 49 50
000
ASUS43 KLOT 130803
RWRIL

ILLINOIS REGIONAL WEATHER ROUNDUP
NATIONAL WEATHER SERVICE CHICAGO/ROMEOVILLE IL
200 AM CST SAT FEB 13 2016

NOTE: "FAIR" INDICATES FEW OR NO CLOUDS BELOW 12,000 FEET WITH NO
SIGNIFICANT WEATHER AND/OR OBSTRUCTIONS TO VISIBILITY.

* THESE STATIONS ARE NOT UNDER NWS QUALITY CONTROL. THEY ALSO MAY NOT
  REPORT WEATHER SUCH AS PRECIPITATION OR FOG.

ILZ001-002-007-009-015-016-024-130900-
NORTHWEST ILLINOIS

CITY           SKY/WX    TMP DP  RH WIND       PRES   REMARKS
MOLINE         CLEAR      7  -7  52 NW12      30.60R WCI  -8
STERLING*      PTCLDY     7  -8  51 N10       30.54R WCI  -8
$$

ILZ003-004-008-010-011-017-018-130900-
NORTH CENTRAL ILLINOIS

CITY           SKY/WX    TMP DP  RH WIND       PRES   REMARKS
ROCKFORD       PTCLDY     5 -10  50 N7        30.56R WCI  -7
FREEPORT*      PTCLDY     3 -10  54 NW9       30.56R WCI -11
DE KALB*       PTCLDY     4  -9  54 N9        30.52R WCI -10
$$

ILZ005-006-012>014-019>023-130900-
NORTHEAST ILLINOIS

CITY           SKY/WX    TMP DP  RH WIND       PRES   REMARKS
CHICAGO-OHARE  CLEAR      5 -11  47 NW16      30.50R WCI -14
CHICAGO-MIDWAY PTCLDY     7 -12  41 NW17G23   30.51R WCI -12
AURORA         CLEAR      6  -8  52 N12       30.54R WCI  -9
WAUKEGAN       CLEAR      3 -11  52 NW9       30.49R WCI -12
DUPAGE AIRPORT CLEAR      4 -10  52 NW15G22   30.51R WCI -14
WHEELING       CLEAR      4 -11  50 N14       30.52R WCI -14
NORTHERLY ISL    N/A      8  -9  45 N12         N/A  WCI  -7
$$

LMZ740>746-130900-
SOUTHERN LAKE MICHIGAN

STATION/POSITION SKY/WX   TEMP    WIND        PRES    VSBY  WAVE
                          AIR SEA DIR/SP/G                  HT/PER
                          (F)     (DEG/KT/KT) (MB)    (MI)  (FT/S)
HARRISON CRIB               9     320/ 22/ 25   N/A
BURNHAM HARBOR              8     310/  9/ 18   N/A
CALUMET HARBOR              8     310/ 10/ 16 1031.4
BURNS HARBOR               13     320/ 18/ 25 1030.1S
MICHIGAN CITY              13     300/ 26/ 30   N/A
$$

ILZ025>027-034>036-040-047-049-050-058-095>099-130900-
WEST-CENTRAL ILLINOIS

CITY           SKY/WX    TMP DP  RH WIND       PRES   REMARKS
QUINCY         CLOUDY     7  -1  70 NW9       30.60R WCI  -7
MACOMB*        CLOUDY     8   0  70 N10       30.61S WCI  -6
$$

ILZ028>032-037-038-041>044-048-051>054-059>061-130900-
CENTRAL ILLINOIS

CITY           SKY/WX    TMP DP  RH WIND       PRES   REMARKS
BLOOMINGTON    PTCLDY     8  -1  66 N10       30.53R WCI  -6
DECATUR        PTCLDY    11   0  61 NW12G21   30.54R WCI  -3
PEORIA         CLEAR      8  -3  61 N5        30.58R WCI   0
SPRINGFIELD    PTCLDY    11  -1  58 NW9       30.57R WCI  -2
TAYLORVILLE    NOT AVBL
$$

ILZ033-039-045-046-055>057-062-063-130900-
EAST-CENTRAL ILLINOIS

CITY           SKY/WX    TMP DP  RH WIND       PRES   REMARKS
CHAMPAIGN      CLEAR     10   1  67 NW12      30.51R WCI  -5
MATTOON        PTCLDY    11   3  70 NW14      30.51R WCI  -5
$$

ILZ079-100>102-130900-
SOUTHWEST ILLINOIS

CITY           SKY/WX    TMP DP  RH WIND       PRES   REMARKS
BELLEVILLE     CLEAR     15   4  62 N8G17     30.56R WCI   4
CAHOKIA*       PTCLDY    16   4  59 N16G25    30.59R WCI   1
SPARTA*        CLEAR     17   7  63 N10       30.56R WCI   5
$$

ILZ064>066-069>071-074>076-080>082-084>086-088>090-092>094-130900-
SOUTH-CENTRAL ILLINOIS

CITY           SKY/WX    TMP DP  RH WIND       PRES   REMARKS
CARBONDALE     PTCLDY    19   6  57 N15       30.55R WCI   5
MT. VERNON     CLEAR     16   1  53 N5        30.54R WCI   9
CENTRALIA*     CLEAR     17   8  68 N12G18    30.54R WCI   4
SALEM*         PTCLDY    17   8  67 NW12      30.54R WCI   4
$$

ILZ067-068-072-073-078-083-087-091-130900-
SOUTHEAST ILLINOIS

CITY           SKY/WX    TMP DP  RH WIND       PRES   REMARKS
LAWRENCEVILLE  PTCLDY    15   4  61 N17       30.52R WCI  -1
HARRISBURG*    CLEAR     19   8  61 N12       30.54R WCI   7
$$

ABBREVIATIONS USED IN REMARKS
   TC - TEMPERATURE IN CELSIUS
  WCI - WIND CHILL INDEX
   HX - HEAT INDEX
  VSB - VISIBILITY
$$




USA.gov is the U.S. government's official web portal to all federal, state and local government web resources and services.